DLH069 LBSF-EDDM

Flight info

Callsign DLH069
Flight time 1h 30m
Altitude 40000
Route OGOTA T228 UTEKA DCT POZ DCT KOTUS DCT BABIT DCT SUNIS DCT AMADI Q113 NAPSA NAPSA1B
Aircraft A35K/H-SDE2E3GHIJ3J4J5LM1ORWXY/LB1D1

Departure

Time 2026-05-05 17:46
Airport Sofia Airport (LBSF)

Arrival

Time 2026-05-05 19:16
Airport Munich Airport (EDDM)
Time Latitude Longitude Altitude Speed Heading
2026-05-05 17:16 42.69139 23.41449 1755 ft 0 kts 241°
2026-05-05 17:30 42.69146 23.41467 1744 ft 3 kts 241°
2026-05-05 17:30 42.69156 23.41490 1744 ft 3 kts 254°
2026-05-05 17:31 42.69158 23.41517 1744 ft 3 kts 290°
2026-05-05 17:31 42.69149 23.41540 1744 ft 3 kts 307°
2026-05-05 17:31 42.69138 23.41562 1744 ft 3 kts 303°
2026-05-05 17:31 42.69127 23.41579 1744 ft 0 kts 333°
2026-05-05 17:39 42.69129 23.41578 1754 ft 2 kts 333°
2026-05-05 17:39 42.69156 23.41562 1744 ft 7 kts 339°
2026-05-05 17:39 42.69214 23.41535 1746 ft 11 kts 341°
2026-05-05 17:39 42.69300 23.41517 1749 ft 14 kts
2026-05-05 17:40 42.69410 23.41526 1751 ft 17 kts
2026-05-05 17:40 42.69478 23.41411 1746 ft 18 kts 277°
2026-05-05 17:40 42.69488 23.41230 1750 ft 20 kts 274°
2026-05-05 17:40 42.69497 23.41038 1749 ft 21 kts 275°
2026-05-05 17:41 42.69509 23.40834 1745 ft 22 kts 275°
2026-05-05 17:41 42.69522 23.40620 1745 ft 23 kts 275°
2026-05-05 17:41 42.69535 23.40394 1743 ft 24 kts 275°
2026-05-05 17:41 42.69549 23.40162 1745 ft 25 kts 275°
2026-05-05 17:42 42.69564 23.39917 1748 ft 26 kts 275°
2026-05-05 17:42 42.69574 23.39677 1751 ft 13 kts 280°
2026-05-05 17:42 42.69579 23.39653 1747 ft 4 kts 287°
2026-05-05 17:42 42.69605 23.39609 1741 ft 8 kts 321°
2026-05-05 17:43 42.69638 23.39593 1742 ft 0 kts 351°
2026-05-05 17:43 42.69642 23.39593 1742 ft 2 kts 354°
2026-05-05 17:44 42.69672 23.39593 1746 ft 6 kts
2026-05-05 17:44 42.69724 23.39601 1744 ft 9 kts 15°
2026-05-05 17:44 42.69761 23.39647 1745 ft 5 kts 71°
2026-05-05 17:44 42.69763 23.39704 1746 ft 7 kts 92°
2026-05-05 17:45 42.69756 23.39856 1751 ft 38 kts 94°
2026-05-05 17:45 42.69718 23.40529 1748 ft 104 kts 95°
2026-05-05 17:45 42.69644 23.41773 1756 ft 159 kts 95°
2026-05-05 17:45 42.69552 23.43394 2115 ft 178 kts 92°
2026-05-05 17:46 42.69471 23.45102 2802 ft 184 kts 94°
2026-05-05 17:46 42.69364 23.46853 3302 ft 191 kts 96°
2026-05-05 17:46 42.69229 23.48764 3515 ft 215 kts 95°
2026-05-05 17:46 42.69247 23.50879 3684 ft 239 kts 81°
2026-05-05 17:47 42.69959 23.52987 4034 ft 256 kts 50°
2026-05-05 17:47 42.71505 23.54241 4661 ft 266 kts 14°
2026-05-05 17:47 42.73360 23.54200 5340 ft 272 kts 348°
2026-05-05 17:47 42.75161 23.53311 6041 ft 277 kts 335°
2026-05-05 17:48 42.76836 23.52063 6841 ft 277 kts 329°
2026-05-05 17:48 42.78477 23.50695 7683 ft 276 kts 328°
2026-05-05 17:48 42.80121 23.49341 8537 ft 276 kts 329°
2026-05-05 17:48 42.81756 23.47974 9411 ft 276 kts 326°
2026-05-05 17:49 42.83363 23.46492 10159 ft 281 kts 326°
2026-05-05 17:49 42.85016 23.44927 10562 ft 299 kts 325°
2026-05-05 17:49 42.86772 23.43236 10845 ft 319 kts 325°
2026-05-05 17:49 42.88636 23.41421 11122 ft 338 kts 324°
2026-05-05 17:50 42.90580 23.39518 11446 ft 355 kts 324°
2026-05-05 17:50 42.92618 23.37520 11970 ft 363 kts 324°
2026-05-05 17:50 42.94691 23.35488 12654 ft 368 kts 325°
2026-05-05 17:50 42.96782 23.33440 13272 ft 374 kts 325°
2026-05-05 17:51 42.98916 23.31348 13929 ft 378 kts 326°
2026-05-05 17:51 43.01054 23.29251 14637 ft 378 kts 326°
2026-05-05 17:51 43.03197 23.27151 15304 ft 380 kts 326°
2026-05-05 17:51 43.05367 23.25026 15915 ft 384 kts 326°
2026-05-05 17:52 43.07521 23.22914 16517 ft 387 kts 326°
2026-05-05 17:52 43.09724 23.20750 17155 ft 389 kts 326°
2026-05-05 17:52 43.11936 23.18574 17821 ft 391 kts 326°
2026-05-05 17:52 43.13400 23.17133 18267 ft 392 kts 326°
2026-05-05 17:53 43.16372 23.14206 18927 ft 399 kts 325°
2026-05-05 17:53 43.18631 23.11978 19518 ft 401 kts 325°
2026-05-05 17:53 43.20140 23.10488 19906 ft 403 kts 325°
2026-05-05 17:53 43.22431 23.08225 20543 ft 405 kts 325°
2026-05-05 17:54 43.24727 23.05954 21120 ft 407 kts 321°
2026-05-05 17:54 43.26994 23.03591 21705 ft 410 kts 323°
2026-05-05 17:54 43.29294 23.01237 22273 ft 413 kts 325°
2026-05-05 17:54 43.31610 22.98962 22834 ft 415 kts 326°
2026-05-05 17:55 43.33985 22.96659 23392 ft 418 kts 326°
2026-05-05 17:55 43.36374 22.94340 23871 ft 422 kts 325°
2026-05-05 17:55 43.38782 22.91984 24307 ft 425 kts 324°
2026-05-05 17:55 43.41165 22.89631 24773 ft 428 kts 324°
2026-05-05 17:56 43.43586 22.87225 25277 ft 430 kts 324°
2026-05-05 17:56 43.46030 22.84787 25743 ft 432 kts 324°
2026-05-05 17:56 43.48470 22.82348 26218 ft 434 kts 324°
2026-05-05 17:56 43.50918 22.79898 26683 ft 436 kts 324°
2026-05-05 17:57 43.53360 22.77453 27124 ft 438 kts 324°
2026-05-05 17:57 43.55834 22.74973 27583 ft 441 kts 324°
2026-05-05 17:57 43.58331 22.72470 27981 ft 444 kts 324°
2026-05-05 17:57 43.60835 22.69958 28408 ft 446 kts 324°
2026-05-05 17:58 43.63358 22.67421 28850 ft 449 kts 324°
2026-05-05 17:58 43.65889 22.64875 29264 ft 451 kts 324°
2026-05-05 17:58 43.68399 22.62346 29678 ft 453 kts 324°
2026-05-05 17:58 43.70956 22.59768 30045 ft 456 kts 324°
2026-05-05 17:59 43.73537 22.57163 30369 ft 458 kts 324°
2026-05-05 17:59 43.76121 22.54552 30669 ft 461 kts 324°
2026-05-05 17:59 43.78718 22.51927 30968 ft 463 kts 323°
2026-05-05 17:59 43.81325 22.49288 31331 ft 462 kts 323°
2026-05-05 18:00 43.83919 22.46658 31784 ft 460 kts 323°
2026-05-05 18:00 43.86461 22.44080 32223 ft 458 kts 323°
2026-05-05 18:00 43.89031 22.41438 32618 ft 457 kts 321°
2026-05-05 18:00 43.91407 22.38503 32991 ft 456 kts 314°
2026-05-05 18:01 43.93513 22.35267 33368 ft 456 kts 311°
2026-05-05 18:01 43.95567 22.31883 33581 ft 458 kts 310°
2026-05-05 18:01 43.97572 22.28451 33895 ft 458 kts 309°
2026-05-05 18:01 43.99561 22.24989 34244 ft 456 kts 309°
2026-05-05 18:02 44.01533 22.21537 34528 ft 456 kts 309°
2026-05-05 18:02 44.03505 22.18086 34771 ft 456 kts 309°
2026-05-05 18:02 44.05462 22.14672 35013 ft 455 kts 309°
2026-05-05 18:02 44.07441 22.11226 35266 ft 455 kts 309°
2026-05-05 18:03 44.09414 22.07793 35497 ft 455 kts 309°
2026-05-05 18:03 44.11394 22.04350 35737 ft 454 kts 309°
2026-05-05 18:03 44.13363 22.00923 35973 ft 453 kts 309°
2026-05-05 18:03 44.15338 21.97482 36233 ft 452 kts 309°
2026-05-05 18:04 44.17303 21.94055 36427 ft 453 kts 309°
2026-05-05 18:04 44.19245 21.90662 36618 ft 453 kts 309°
2026-05-05 18:04 44.21216 21.87215 36801 ft 453 kts 308°
2026-05-05 18:04 44.23186 21.83764 37007 ft 453 kts 308°
2026-05-05 18:05 44.25151 21.80320 37161 ft 454 kts 308°
2026-05-05 18:05 44.29061 21.73452 37443 ft 454 kts 308°
2026-05-05 18:05 44.31028 21.69991 37647 ft 453 kts 308°
2026-05-05 18:06 44.32986 21.66541 37836 ft 452 kts 308°
2026-05-05 18:06 44.36877 21.59672 38116 ft 453 kts 308°
2026-05-05 18:06 44.38854 21.56177 38256 ft 452 kts 308°
2026-05-05 18:07 44.40806 21.52721 38384 ft 452 kts 308°
2026-05-05 18:07 44.42734 21.49303 38534 ft 452 kts 308°
2026-05-05 18:07 44.44683 21.45844 38631 ft 452 kts 308°
2026-05-05 18:08 44.48582 21.38912 38825 ft 452 kts 308°
2026-05-05 18:08 44.52477 21.31971 38984 ft 452 kts 308°
2026-05-05 18:09 44.56347 21.25057 39080 ft 454 kts 308°
2026-05-05 18:09 44.60265 21.18043 39177 ft 456 kts 307°
2026-05-05 18:09 44.62192 21.14585 39308 ft 454 kts 307°
2026-05-05 18:10 44.64158 21.11116 39368 ft 454 kts 308°
2026-05-05 18:10 44.68196 21.04258 39509 ft 454 kts 309°
2026-05-05 18:11 44.72223 20.97462 39602 ft 455 kts 309°
2026-05-05 18:11 44.76243 20.90532 39707 ft 455 kts 308°
2026-05-05 18:12 44.80152 20.83571 39785 ft 456 kts 308°
2026-05-05 18:12 44.84086 20.76538 39822 ft 458 kts 308°
2026-05-05 18:13 44.88066 20.69441 39778 ft 461 kts 308°
2026-05-05 18:13 44.92025 20.62384 39862 ft 462 kts 308°
2026-05-05 18:14 44.96020 20.55245 39938 ft 462 kts 308°
2026-05-05 18:14 45.00007 20.48101 39938 ft 462 kts 308°
2026-05-05 18:15 45.03990 20.40947 39934 ft 462 kts 308°
2026-05-05 18:15 45.07939 20.33834 39939 ft 462 kts 307°
2026-05-05 18:16 45.11914 20.26658 39941 ft 463 kts 307°
2026-05-05 18:16 45.15889 20.19462 39940 ft 464 kts 307°
2026-05-05 18:17 45.19844 20.12285 39937 ft 464 kts 307°
2026-05-05 18:17 45.23816 20.05060 39937 ft 464 kts 307°
2026-05-05 18:18 45.27770 19.97847 39942 ft 465 kts 307°
2026-05-05 18:18 45.31748 19.90574 39938 ft 465 kts 307°
2026-05-05 18:19 45.35699 19.83331 39942 ft 465 kts 307°
2026-05-05 18:19 45.39662 19.76047 39940 ft 465 kts 307°
2026-05-05 18:20 45.43630 19.68738 39939 ft 465 kts 307°
2026-05-05 18:20 45.47559 19.61478 39944 ft 465 kts 307°
2026-05-05 18:21 45.51513 19.54153 39939 ft 465 kts 307°
2026-05-05 18:21 45.55434 19.46873 39936 ft 466 kts 307°
2026-05-05 18:22 45.59385 19.39516 39943 ft 466 kts 306°
2026-05-05 18:22 45.63321 19.32169 39944 ft 465 kts 306°
2026-05-05 18:23 45.67252 19.24812 39944 ft 465 kts 306°
2026-05-05 18:23 45.71153 19.17492 39944 ft 465 kts 306°
2026-05-05 18:24 45.75088 19.10090 39947 ft 466 kts 306°
2026-05-05 18:24 45.78991 19.02729 39949 ft 466 kts 306°
2026-05-05 18:25 45.82920 18.95299 39944 ft 467 kts 306°
2026-05-05 18:25 45.86822 18.87899 39952 ft 467 kts 306°
2026-05-05 18:26 45.90746 18.80440 39948 ft 467 kts 306°
2026-05-05 18:26 45.94660 18.72979 39950 ft 467 kts 306°
2026-05-05 18:27 45.98552 18.65540 39958 ft 467 kts 306°
2026-05-05 18:27 46.02465 18.58042 39958 ft 467 kts 306°
2026-05-05 18:28 46.08293 18.46837 39973 ft 467 kts 305°
2026-05-05 18:28 46.12191 18.39317 39967 ft 468 kts 305°
2026-05-05 18:29 46.16059 18.31835 39963 ft 468 kts 305°
2026-05-05 18:29 46.19952 18.24283 39960 ft 468 kts 305°
2026-05-05 18:30 46.23836 18.16731 39955 ft 467 kts 305°
2026-05-05 18:30 46.27689 18.09217 39952 ft 467 kts 305°
2026-05-05 18:31 46.31556 18.01656 39948 ft 467 kts 305°
2026-05-05 18:31 46.35419 17.94082 39946 ft 467 kts 305°
2026-05-05 18:32 46.39264 17.86523 39950 ft 467 kts 305°
2026-05-05 18:32 46.43128 17.78907 39942 ft 469 kts 305°
2026-05-05 18:33 46.46970 17.71313 39939 ft 470 kts 305°
2026-05-05 18:33 46.50843 17.63637 39934 ft 470 kts 305°
2026-05-05 18:34 46.54681 17.56010 39926 ft 469 kts 304°
2026-05-05 18:34 46.58528 17.48343 39921 ft 469 kts 304°
2026-05-05 18:35 46.62365 17.40674 39914 ft 468 kts 304°
2026-05-05 18:35 46.66198 17.32994 39913 ft 468 kts 304°
2026-05-05 18:36 46.70005 17.25345 39904 ft 468 kts 304°
2026-05-05 18:36 46.73822 17.17655 39904 ft 467 kts 304°
2026-05-05 18:37 46.77634 17.09951 39920 ft 467 kts 304°
2026-05-05 18:37 46.81417 17.02286 39920 ft 467 kts 304°
2026-05-05 18:38 46.85217 16.94567 39907 ft 467 kts 304°
2026-05-05 18:38 46.89005 16.86850 39894 ft 466 kts 304°
2026-05-05 18:39 46.92781 16.79134 39897 ft 465 kts 304°
2026-05-05 18:39 46.96522 16.71469 39891 ft 465 kts 303°
2026-05-05 18:40 47.00289 16.63730 39891 ft 465 kts 303°
2026-05-05 18:40 47.04049 16.55985 39882 ft 466 kts 303°
2026-05-05 18:41 47.07784 16.48268 39882 ft 466 kts 303°
2026-05-05 18:41 47.11542 16.40482 39879 ft 466 kts 303°
2026-05-05 18:42 47.14873 16.32431 39877 ft 463 kts 294°
2026-05-05 18:42 47.17544 16.23805 39871 ft 463 kts 292°
2026-05-05 18:43 47.20086 16.15135 39871 ft 463 kts 292°
2026-05-05 18:43 47.22619 16.06424 39869 ft 463 kts 292°
2026-05-05 18:44 47.24734 15.99167 39871 ft 463 kts 292°
2026-05-05 18:44 47.27688 15.89035 39872 ft 463 kts 291°
2026-05-05 18:45 47.29813 15.81726 39860 ft 462 kts 291°
2026-05-05 18:45 47.32323 15.73062 39861 ft 462 kts 291°
2026-05-05 18:46 47.34841 15.64336 39861 ft 462 kts 291°
2026-05-05 18:46 47.37352 15.55598 39864 ft 462 kts 291°
2026-05-05 18:47 47.39853 15.46878 39861 ft 461 kts 291°
2026-05-05 18:47 47.42337 15.38175 39860 ft 462 kts 291°
2026-05-05 18:48 47.44830 15.29413 39854 ft 462 kts 291°
2026-05-05 18:48 47.47310 15.20665 39845 ft 462 kts 291°
2026-05-05 18:49 47.49789 15.11887 39837 ft 461 kts 290°
2026-05-05 18:49 47.52238 15.03183 39843 ft 461 kts 290°
2026-05-05 18:50 47.54701 14.94398 39834 ft 461 kts 290°
2026-05-05 18:50 47.57140 14.85664 39833 ft 461 kts 290°
2026-05-05 18:51 47.59583 14.76884 39835 ft 461 kts 290°
2026-05-05 18:51 47.62027 14.68070 39825 ft 462 kts 290°
2026-05-05 18:52 47.64469 14.59234 39814 ft 462 kts 290°
2026-05-05 18:52 47.66891 14.50438 39801 ft 463 kts 290°
2026-05-05 18:53 47.69318 14.41590 39805 ft 463 kts 290°
2026-05-05 18:53 47.71742 14.32718 39797 ft 464 kts 289°
2026-05-05 18:54 47.74162 14.23825 39797 ft 464 kts 289°
2026-05-05 18:54 47.76038 14.16903 39782 ft 464 kts 289°
2026-05-05 18:55 47.78394 14.08188 39792 ft 464 kts 289°
2026-05-05 18:55 47.80788 13.99311 39499 ft 462 kts 289°
2026-05-05 18:56 47.81972 13.94909 38849 ft 462 kts 289°
2026-05-05 18:56 47.83167 13.90450 38064 ft 463 kts 289°
2026-05-05 18:56 47.84365 13.85971 37192 ft 464 kts 289°
2026-05-05 18:56 47.85546 13.81548 36355 ft 466 kts 289°
2026-05-05 18:57 47.86746 13.77044 35562 ft 468 kts 289°
2026-05-05 18:57 47.87945 13.72536 34929 ft 466 kts 289°
2026-05-05 18:57 47.89142 13.68031 34299 ft 464 kts 288°
2026-05-05 18:57 47.90330 13.63551 33665 ft 463 kts 288°
2026-05-05 18:58 47.91496 13.59138 32901 ft 463 kts 288°
2026-05-05 18:58 47.92679 13.54654 32052 ft 465 kts 288°
2026-05-05 18:58 47.93871 13.50124 31273 ft 465 kts 288°
2026-05-05 18:58 47.95040 13.45679 30623 ft 463 kts 288°
2026-05-05 18:59 47.96219 13.41193 30043 ft 460 kts 287°
2026-05-05 18:59 47.97374 13.36791 29410 ft 457 kts 288°
2026-05-05 18:59 47.98531 13.32370 28792 ft 454 kts 287°
2026-05-05 18:59 47.99670 13.28011 28175 ft 450 kts 287°
2026-05-05 19:00 48.00807 13.23648 27597 ft 447 kts 287°
2026-05-05 19:00 48.01915 13.19384 27023 ft 444 kts 287°
2026-05-05 19:00 48.03034 13.15070 26455 ft 441 kts 287°
2026-05-05 19:00 48.04134 13.10823 25901 ft 438 kts 287°
2026-05-05 19:01 48.05233 13.06571 25338 ft 434 kts 287°
2026-05-05 19:01 48.06302 13.02428 24816 ft 432 kts 287°
2026-05-05 19:01 48.07382 12.98235 24256 ft 429 kts 287°
2026-05-05 19:01 48.08435 12.94069 23676 ft 426 kts 285°
2026-05-05 19:02 48.09153 12.89864 23060 ft 418 kts 277°
2026-05-05 19:02 48.09636 12.85585 22417 ft 415 kts 275°
2026-05-05 19:02 48.10067 12.81323 21753 ft 412 kts 275°
2026-05-05 19:02 48.10479 12.77095 21109 ft 408 kts 275°
2026-05-05 19:03 48.10880 12.72899 20470 ft 404 kts 275°
2026-05-05 19:03 48.11268 12.68800 19858 ft 400 kts 275°
2026-05-05 19:03 48.11654 12.64674 19249 ft 396 kts 275°
2026-05-05 19:03 48.12029 12.60647 18658 ft 392 kts 275°
2026-05-05 19:04 48.12406 12.56585 18062 ft 389 kts 275°
2026-05-05 19:04 48.12771 12.52624 17401 ft 386 kts 275°
2026-05-05 19:04 48.13137 12.48636 16746 ft 382 kts 276°
2026-05-05 19:04 48.13493 12.44749 16119 ft 379 kts 276°
2026-05-05 19:05 48.13850 12.40843 15482 ft 375 kts 276°
2026-05-05 19:05 48.14163 12.36968 14862 ft 371 kts 273°
2026-05-05 19:05 48.14245 12.33158 14267 ft 367 kts 266°
2026-05-05 19:05 48.14058 12.29344 13673 ft 363 kts 263°
2026-05-05 19:06 48.13789 12.25629 13020 ft 360 kts 262°
2026-05-05 19:06 48.13519 12.21901 12365 ft 357 kts 263°
2026-05-05 19:06 48.13677 12.18257 11731 ft 356 kts 282°
2026-05-05 19:06 48.14686 12.14875 11122 ft 356 kts 302°
2026-05-05 19:07 48.16437 12.12233 10497 ft 359 kts 323°
2026-05-05 19:07 48.18697 12.10695 9982 ft 361 kts 344°
2026-05-05 19:07 48.21179 12.10430 9493 ft 362 kts
2026-05-05 19:07 48.23589 12.11477 8980 ft 357 kts 26°
2026-05-05 19:08 48.25667 12.13367 8457 ft 350 kts 33°
2026-05-05 19:08 48.27656 12.15431 7974 ft 343 kts 34°
2026-05-05 19:08 48.29604 12.17492 7463 ft 337 kts 34°
2026-05-05 19:08 48.31481 12.19494 6978 ft 332 kts 34°
2026-05-05 19:09 48.33367 12.21505 6501 ft 328 kts 33°
2026-05-05 19:09 48.35384 12.22937 6014 ft 321 kts 11°
2026-05-05 19:09 48.37568 12.23112 5512 ft 312 kts 349°
2026-05-05 19:09 48.39551 12.21982 5111 ft 298 kts 324°
2026-05-05 19:10 48.40932 12.19829 5008 ft 277 kts 301°
2026-05-05 19:10 48.41803 12.17387 4997 ft 258 kts 295°
2026-05-05 19:10 48.42544 12.15001 4998 ft 247 kts 294°
2026-05-05 19:10 48.43116 12.12579 4991 ft 245 kts 277°
2026-05-05 19:11 48.42920 12.10064 4995 ft 241 kts 249°
2026-05-05 19:11 48.41961 12.08148 4991 ft 228 kts 219°
2026-05-05 19:11 48.40513 12.07292 5009 ft 225 kts 191°
2026-05-05 19:11 48.38944 12.07129 4998 ft 229 kts 185°
2026-05-05 19:12 48.37442 12.06624 4970 ft 219 kts 215°
2026-05-05 19:12 48.36483 12.04940 4801 ft 211 kts 249°
2026-05-05 19:12 48.36175 12.02895 4557 ft 194 kts 268°
2026-05-05 19:12 48.36053 12.00939 4317 ft 178 kts 265°
2026-05-05 19:13 48.35928 11.99169 4163 ft 166 kts 264°
2026-05-05 19:13 48.35789 11.97442 4167 ft 167 kts 265°
2026-05-05 19:13 48.35655 11.95690 3927 ft 166 kts 265°
2026-05-05 19:13 48.35520 11.93979 3611 ft 166 kts 265°
2026-05-05 19:14 48.35382 11.92239 3288 ft 166 kts 265°
2026-05-05 19:14 48.35250 11.90543 2971 ft 159 kts 265°
2026-05-05 19:14 48.35127 11.88933 2681 ft 153 kts 265°
2026-05-05 19:14 48.35008 11.87388 2435 ft 145 kts 264°
2026-05-05 19:15 48.34934 11.86413 2320 ft 145 kts 265°
2026-05-05 19:15 48.34808 11.84760 2089 ft 149 kts 265°
2026-05-05 19:15 48.34691 11.83225 1883 ft 148 kts 264°
2026-05-05 19:15 48.34573 11.81692 1685 ft 149 kts 264°
2026-05-05 19:16 48.34455 11.80150 1491 ft 147 kts 264°
2026-05-05 19:16 48.34357 11.78787 1465 ft 99 kts 264°
2026-05-05 19:16 48.34310 11.78181 1471 ft 34 kts 264°
2026-05-05 19:16 48.34360 11.77851 1465 ft 16 kts 294°
2026-05-05 19:17 48.34363 11.77838 1467 ft 0 kts 294°
2026-05-05 19:17 48.34367 11.77826 1466 ft 5 kts 294°
2026-05-05 19:17 48.34389 11.77754 1469 ft 11 kts 294°
2026-05-05 19:18 48.34432 11.77605 1463 ft 18 kts 294°
2026-05-05 19:18 48.34516 11.77444 1462 ft 22 kts 341°
2026-05-05 19:18 48.34661 11.77408 1462 ft 6 kts 354°
2026-05-05 19:20 48.34670 11.77407 1462 ft 3 kts 354°
2026-05-05 19:20 48.34706 11.77401 1466 ft 7 kts 354°
2026-05-05 19:20 48.34764 11.77375 1463 ft 10 kts 329°
2026-05-05 19:21 48.34791 11.77275 1460 ft 12 kts 273°
2026-05-05 19:21 48.34785 11.77142 1467 ft 14 kts 262°
2026-05-05 19:21 48.34771 11.76991 1465 ft 15 kts 262°
2026-05-05 19:21 48.34754 11.76821 1469 ft 17 kts 262°
2026-05-05 19:22 48.34740 11.76637 1472 ft 18 kts 265°
2026-05-05 19:22 48.34728 11.76450 1460 ft 20 kts 264°
2026-05-05 19:22 48.34712 11.76237 1466 ft 21 kts 263°
2026-05-05 19:22 48.34697 11.76020 1464 ft 21 kts 265°
2026-05-05 19:23 48.34682 11.75803 1462 ft 20 kts 262°
2026-05-05 19:23 48.34664 11.75644 1463 ft 14 kts 248°
2026-05-05 19:23 48.34621 11.75622 1465 ft 5 kts 168°
2026-05-05 19:23 48.34590 11.75630 1460 ft 0 kts 175°